DMSP 5D-2 F12 DEB, 41835

Orbit data source: Space-Track

DMSP 5D-2 F12 DEB, 41835 is space debris in SSO originally from a launch on Mon, 29 Aug 1994 UTC launched from the Air Force Western Test Range (AFWTR). Debris objects in space refer to the collection of defunct objects orbiting the Earth. Examples of debris include non-operational satellites, rocket bodies, and fragments generated from explosions, collisions, or faulty payload assembly.

Loading next visibility...
DMSP 5D-2 F12 DEB details
Identifier
41835, 1994-057F
Orbit
SSO
Last TLE update7 hours ago
Origin
Flag of USUSAF SMC (US)
ManufacturerLM/EW
MissionSpacecraft
Bus & MotorUnknown
MassUnknown
Launch date (UTC)
1994-08-29 (30 years ago)
Launch vehicleUnknown
Launch site
Air Force Western Test Range (AFWTR)
Object type
Payload
Rocket body
Debris
Shape & HBRUnknown
Radar Cross SectionMedium (>0.1 m² and <1 m²)

Expand to show TLE details & history

TLE from 7 hours ago
0 DMSP 5D-2 F12 DEB
1 41835U 94057F   24361.13666889  .00007571  00000-0  32558-2 0  9994
2 41835  98.9158  93.3006 0016225 359.2229   0.8921 14.24853256423326
Epoch: 2024-12-26T03:16Z
Definitive object data (Epoch: 2024-12-26T03:16:48.192Z)
Latitude-0.00006°
Longitude-51.02058°
Altitude800.238 km
Speed7.459 km/s
True Right ascension06h 13m 12s
True Declination0° 00' 00"
Sunlit
Object was in full shadow at TLE epoch
Visualization TLE readout
Latitude13.49474°
Longitude-52.87887°
Altitude799.89 km
Speed7.46 km/s
Apparent Right ascension03h 08m 12s
Apparent Declination-24° 07' 06"
Sunlit
Object is in full shadow
Visualization observer readout
Local Sidereal Time09:26:12
Azimuth253.62° W
Elevation-18.49°
Doppler factor1
Orbital elements
Apogee altitude817.805 km
Perigee altitude794.492 km
Semi-major axis7,184.285 km
Eccentricity0.0016225
Inclination98.9158°
RAAN93.3006°
Arg. of periapsis359.2229°
True anomaly0.895°
Mean anomaly0.8921°
Eccentric anomaly0.89355°
Mean motion3.56425 °/min
BSTAR0.0032558
Orbital period101 mins
Loading maneuver chart data...
Loading historical data...
Loading historical data...
Loading historical data...
Loading historical data...
Loading historical data...
Loading historical data...
Loading historical data...

DMSP 5D-2 F12 DEB Visibility forecast

Observer location: undefined°, undefined

Span
Click to sort rows by Start time (UTC) header in descending order
Start Az.
Max El. time (UTC)
Max El. Az.
Max El.
End time (UTC)
End Az.
10 mins2024-12-26 19:01:05.009Z20.688° NNE2024-12-26 19:06:05.009Z93.867° ESE41.706°2024-12-26 19:11:05.009Z182.446° SSW
4 mins2024-12-26 20:44:05.009Z317.37° NNW2024-12-26 20:45:05.009Z304.091° NW16.401°2024-12-26 20:48:05.009Z266.011° W
9 mins2024-12-27 06:22:05.009Z167.305° S2024-12-27 06:26:05.009Z290.726° WNW44.861°2024-12-27 06:31:05.009Z345.162° N
|